Regional Weather Roundup
Issued by NWS

Home | Current Version | Previous Version | Text Only | Print | Product List | Glossary On
Versions: 1 2 3 4 5 6 7 8 9 10 11 12 13 14 15 16 17 18 19 20 21 22 23 24 25 26 27 28 29 30 31 32 33 34 35 36
000
ASUS45 KBOU 271607
RWRCO

WEATHER ROUNDUP FOR COLORADO
NATIONAL WEATHER SERVICE DENVER/BOULDER CO
900 AM MST SAT DEC 27 2014

NOTE: "FAIR" INDICATES FEW OR NO CLOUDS BELOW 12000 FEET WITH NO
SIGNIFICANT WEATHER AND/OR OBSTRUCTIONS TO VISIBILITY.

COZ001>005-013-030-031-271700-
...NORTHWEST COLORADO...

CITY           SKY/WX    TMP DP  RH WIND       PRES   REMARKS
CRAIG          CLOUDY     6   3  87 CALM      30.25R
HAYDEN         CLOUDY    10   5  79 CALM      30.21R
MEEKER         MOSUNNY    6   1  80 NE3       30.24R
MOUNT WERNER   NOT AVBL
STEAMBOAT SPGS CLOUDY     9   6  86 CALM      30.20R
WALDEN         MOSUNNY  -11 -17  77 CALM      30.09R
$$

COZ006>008-011-271700-
...WEST CENTRAL VALLEYS...

CITY           SKY/WX    TMP DP  RH WIND       PRES   REMARKS
GRAND JUNCTION SUNNY     13   8  81 E5        30.33R WCI   5
MONTROSE       CLOUDY    17  12  80 CALM      30.32R
EAGLE          MOSUNNY    3   1  92 CALM      30.27R
RIFLE          CLOUDY    10   5  80 CALM      30.31R
DELTA          CLOUDY    22  14  71 NE3       30.32S
NUCLA          SUNNY     12   5  73 SE6       30.32R WCI   3
$$

COZ017>023-064>068-271700-
...SOUTHWEST COLORADO...

CITY           SKY/WX    TMP DP  RH WIND       PRES   REMARKS
DURANGO        MOSUNNY    7   2  80 CALM      30.18R
CORTEZ         SUNNY     13   6  74 NE6       30.24R WCI   4
PAGOSA SPRINGS MOSUNNY  N/A N/A N/A CALM      30.14R THUNDER
TELLURIDE      MOSUNNY    2  -1  85 CALM      30.12R
WOLF CREEK PAS   N/A      1   0  92 MISG      29.98R
$$

COZ009-010-012-014-032>034-037-058>063-271700-
...CENTRAL COLORADO...

CITY           SKY/WX    TMP DP  RH WIND       PRES   REMARKS
ASPEN          MOSUNNY    3  -4  72 S8        30.16R WCI -10
BUENA VISTA    NOT AVBL
COPPER MTN     CLOUDY     0  -8  71 W12       29.94R WCI -18
BERTHOUD PASS  CLOUDY    -9 -15  77 MISG      29.87R
COTTONWOOD PAS MOSUNNY   10   0  61 SE5       30.02R WCI   2
GUNNISON       CLOUDY     3   1  92 N8        30.21R WCI -10
KREMMLING      CLOUDY    10   3  72 CALM      30.19R
LEADVILLE      SUNNY     -3  -9  75 N6        30.02R WCI -15
MONARCH PASS   CLOUDY    -4  -8  84 MISG      30.03R HAZE
SALIDA         MOSUNNY    3  -3  75 N5        30.22S WCI  -6
SUNLIGHT       FOG      N/A N/A N/A CALM      30.05R VSB 1/2
WILKERSON PASS MOSUNNY    1  -4  78 W3        29.96R
$$

COZ069>075-271700-
...SAN LUIS VALLEY/SANGRE DE CRISTO MOUNTAINS...

CITY           SKY/WX    TMP DP  RH WIND       PRES   REMARKS
ALAMOSA        FOG        4   2  91 CALM      30.16R VSB 1/4
LA VETA PASS   NOT AVBL
SAGUACHE       NOT AVBL
$$

COZ035-036-038>040-271700-
...NORTHERN COLORADO FRONT RANGE...

CITY           SKY/WX    TMP DP  RH WIND       PRES   REMARKS
DENVER INTL AP MOSUNNY   13   5  70 SW16      30.15R WCI  -3
DMNS CITY PARK   N/A     16   4  60 S5G12     30.18R WCI   8
AURORA         MOSUNNY   12   6  77 S8        30.16R WCI   1
FRONT RANGE AP MOSUNNY   12   5  73 S15       30.16R WCI  -4
ERIE MUNI ARPT   N/A      4   2  90 CALM      30.17R
BOULDER MUN AP SUNNY     16  10  79 CALM      30.14S
CENTENNIAL     MOSUNNY   12   6  77 S7        30.14R WCI   1
BROOMFIELD     SUNNY     16   9  73 S7        30.14R WCI   6
FORT COLLINS   MOSUNNY    7   3  85 CALM      30.16S
LONGMONT       MOSUNNY    8   5  86 S3        30.18S
$$

COZ041-046-047-076>085-087-088-271700-
...PIKES PEAK/PALMER DIVIDE AND SOUTHERN FOOTHILLS...

CITY           SKY/WX    TMP DP  RH WIND       PRES   REMARKS
COLO. SPRINGS  SUNNY     15   7  70 W3        30.17R
A. F. ACADEMY  SUNNY     11   2  67 E2        30.13R
ELLICOTT       NOT AVBL
FALCON         SUNNY     20   3  47 CALM      30.13R
FORT CARSON    SUNNY     12   7  79 NW2       30.16R
LIMON          SUNNY      8   3  80 W12       30.17R WCI  -7
MONUMENT HILL  MOSUNNY    9   3  78 SW7       30.09R WCI  -3
TRINIDAD       MOSUNNY   12   6  77 W15       30.20R WCI  -4
$$

COZ042>045-048>051-090-091-271700-
...NORTHEAST COLORADO...

CITY           SKY/WX    TMP DP  RH WIND       PRES   REMARKS
GREELEY ARPT   MOSUNNY   -6 -11  77 CALM      30.18R
AKRON          MOSUNNY    7   4  87 W16       30.17R WCI -11
BURLINGTON     SUNNY     13   7  77 W12       30.21S WCI  -1
WRAY           SUNNY     11   7  84 W7        30.24R WCI   0
STERLING       MOSUNNY    5   1  85 SW5       30.21R WCI  -4
HOLYOKE        SUNNY     12   5  73 SW6       30.21R WCI   3
FORT MORGAN    MOSUNNY    4   0  85 W6        30.20R WCI  -7
$$

COZ086-089-092>099-271700-
...SOUTHEAST COLORADO...

CITY           SKY/WX    TMP DP  RH WIND       PRES   REMARKS
PUEBLO         SUNNY     14  10  84 W7        30.24R WCI   4
LA JUNTA       SUNNY     14   9  80 SW6       30.27R WCI   5
LAMAR          SUNNY     16  12  84 SW8       30.27R WCI   5
SPRINGFIELD      N/A     20  15  81 NW8       30.25R WCI  10
$$


USA.gov is the U.S. government's official web portal to all federal, state and local government web resources and services.